Regional Weather Roundup
Issued by NWS

Home | Current Version | Previous Version | Text Only | Print | Product List | Glossary Off
Versions: 1 2 3 4 5 6 7 8 9 10 11 12 13 14 15 16 17 18 19 20 21 22 23 24 25 26 27 28 29 30 31 32 33 34 35 36 37 38 39 40 41 42 43 44 45 46 47 48 49 50

000
ASUS46 KSTO 271609
RWRCA

NORTHERN AND CENTRAL CA REGIONAL WEATHER ROUNDUP
NATIONAL WEATHER SERVICE SACRAMENTO CA
900 AM PDT WED JUL 27 2016

NOTE: FAIR INDICATES FEW OR NO CLOUDS BELOW 12,000 FEET WITH NO
SIGNIFICANT WEATHER AND/OR OBSTRUCTIONS TO VISIBILITY.

CAZ001-003-271700-
NORTHWEST AREA

CITY           SKY/WX    TMP DP  RH WIND       PRES   REMARKS
CRESCENT CITY  FOG       54  53  97 SW6       29.98R VSB 1/4
ARCATA         NOT AVBL
SHELTER COVE   NOT AVBL
UKIAH          SUNNY     75  52  44 CALM      29.91S
$$

CAZ006-505>513-271700-
BAY AREA

CITY           SKY/WX    TMP DP  RH WIND       PRES   REMARKS
SANTA ROSA     MOSUNNY   65  53  65 CALM      29.89R
SAN RAFAEL     N/A       61  MM  MM MISG
NAPA           SUNNY     66  59  78 SW5       29.90S
CONCORD        SUNNY     73  53  49 N5        29.89R
OAKLAND CITY   N/A       57  MM  MM MISG
OAKLAND        MOSUNNY   65  55  70 NW7       29.91S
SAN FRAN CITY  N/A       57  MM  86 MISG
SAN FRAN ARPT  MOSUNNY   62  52  69 NW10      29.91R
LIVERMORE      SUNNY     75  50  41 SW3       29.89R
HAYWARD        SUNNY     69  51  52 NW5       29.90S
REDWOOD CITY   N/A       MM  MM  MM MISG
MOFFETT ARPT   SUNNY     69  59  70 N6        29.91R
SAN JOSE ARPT  PTSUNNY   71  59  65 W3        29.90R
$$
CAZ034-037-514>518-271700-
CENTRAL COAST

CITY           SKY/WX    TMP DP  RH WIND       PRES   REMARKS
WATSONVILLE    SUNNY     59  53  80 CALM      29.93S
SALINAS        SUNNY     59  53  80 CALM      29.92S
MONTEREY       PTSUNNY   54  51  90 CALM      29.93R
PT PIEDRAS BLS NOT AVBL
SAN LUIS OBISP SUNNY     67  53  61 CALM      29.92S
SANTA MARIA    SUNNY     62  56  80 CALM      29.94R
$$
CAZ015-016-271700-
NORTHERN SACRAMENTO VALLEY

CITY           SKY/WX    TMP DP  RH WIND       PRES   REMARKS
REDDING        SUNNY     85  56  37 NW3       29.88S
RED BLUFF      SUNNY     87  52  29 N10       29.88S
OROVILLE       SUNNY     86  50  28 CALM      29.88R
$$
CAZ016>018-271700-
SOUTHERN SACRAMENTO VALLEY

CITY           SKY/WX    TMP DP  RH WIND       PRES   REMARKS
AUBURN         SUNNY     88  39  18 E6        29.95R
BEALE AFB      SUNNY     87  46  24 NW3       29.85R
LINCOLN        FAIR      84  43  23 CALM      29.86R
MARYSVILLE     SUNNY     82  53  36 CALM      29.86S
SAC INTL ARPT  SUNNY     79  50  36 E5        29.85S
MATHER AIRPORT SUNNY     81  48  32 CALM      29.87R
DOWNTOWN SAC   N/A       81  MM  MM MISG
SAC EXEC ARPT  SUNNY     75  52  44 CALM      29.86R
VACAVILLE      SUNNY     83  50  31 CALM      29.87S
TRAVIS AFB     SUNNY     79  52  39 SW13      29.84S
$$
CAZ019>021-271700-
SAN JOAQUIN VALLEY

CITY           SKY/WX    TMP DP  RH WIND       PRES   REMARKS
STOCKTON       SUNNY     81  53  37 NW3       29.86R
MODESTO        SUNNY     86  47  25 N5        29.85R
MERCED         SUNNY     84  49  29 CALM      29.86R
LEMOORE        SUNNY     87  47  24 NW7       29.87R
FRESNO         SUNNY     88  57  34 E7        29.87S
HANFORD        SUNNY     83  52  34 CALM      29.88R
PORTERVILLE    SUNNY     86  54  33 SW5       29.89S
BAKERSFIELD    SUNNY     89  50  26 SE5       29.89R
$$
CAZ011-012-071-271700-
NORTHERN MOUNTAINS

CITY           SKY/WX    TMP DP  RH WIND       PRES   REMARKS
YREKA          SUNNY     74  50  42 CALM      30.08S
MOUNT SHASTA   SUNNY     75  55  49 VRB3      30.10S
ALTURAS        SUNNY     73  42  32 CALM      30.16S
$$
CAZ011-012-071-271700-
SIERRA NEVADA MTNS

CITY           SKY/WX    TMP DP  RH WIND       PRES   REMARKS
BLUE CANYON    NOT AVBL
TRUCKEE        SUNNY     57  32  38 CALM      30.30F
TAHOE VLY ARPT SUNNY     66  29  24 CALM      30.31S
MAMMOTH LAKES    N/A     72  34  24 SE5       30.38S
$$




USA.gov is the U.S. government's official web portal to all federal, state and local government web resources and services.